Clarksville, TN

7:00 PM CDT on August 21, 2017 (GMT -0500)
Outlaw

Weather History for KCKV - November, 2014

Change the Weather History Date:

Sunday, November 9, 2014

  Actual Average Record
Temperature  
Mean Temperature 44 °F 51 °F  
Max Temperature 59 °F 62 °F 81 °F (1975)
Min Temperature 29 °F 40 °F 18 °F (1976)
Degree Days  
Heating Degree Days 21    
Month to date heating degree days 154  
Since 1 July heating degree days 379  
Cooling Degree Days 0    
Month to date cooling degree days 0  
Year to date cooling degree days  
Moisture  
Dew Point 32 °F    
Average Humidity 64    
Maximum Humidity 100    
Minimum Humidity 28    
Precipitation  
Precipitation 0.00 in 0.11 in 1.77 in (1987)
Month to date precipitation 0.93 1.22  
Year to date precipitation 41.79  
Sea Level Pressure  
Sea Level Pressure 30.04 in    
Wind  
Wind Speed 2 mph (WSW)    
Max Wind Speed 9 mph    
Max Gust Speed 15 mph    
Visibility 9 miles    
Events      
T = Trace of Precipitation, MM = Missing Value Source: NWS Daily Summary

Daily Weather History Graph

Daily Weather History Graph

Search for Another Location

Airport or City:

Trip Planner

Search our weather history database for the weather conditions in past years. The results will help you decide how hot, cold, wet, or windy it might be!

Date:

Astronomy

Nov. 09, 2014 Rise Set
Actual Time 6:21 AM CST 4:45 PM CST
Civil Twilight 5:54 AM CST 5:12 PM CST
Nautical Twilight 5:23 AM CST 5:43 PM CST
Astronomical Twilight 4:52 AM CST 6:13 PM CST
Moon 7:19 PM CST (11/9) 8:51 AM CST (11/9)
Length of Visible Light 11h 18m
Length of Day
10h 24m
Waning Gibbous, 91% of the Moon is Illuminated
Nov 9
Waning Gibbous
Nov 14
Last Quarter
Nov 22
New
Nov 29
First Quarter
Dec 6
Full

Hourly Weather History & Observations

Time (CST) Temp. Windchill Dew Point Humidity Pressure Visibility Wind Dir Wind Speed Gust Speed Precip Events Conditions
12:52 AM 35.1 °F - 33.1 °F 92% 30.07 in 10.0 mi Calm Calm - N/A   Clear
1:52 AM 35.1 °F 32.2 °F 34.0 °F 96% 30.06 in 9.0 mi NW 3.5 mph - N/A   Clear
2:52 AM 34.0 °F - 33.1 °F 96% 30.06 in 10.0 mi Calm Calm - N/A   Clear
3:52 AM 34.0 °F 31.0 °F 32.0 °F 92% 30.07 in 10.0 mi NW 3.5 mph - N/A   Clear
4:52 AM 32.0 °F 28.7 °F 30.9 °F 96% 30.08 in 10.0 mi West 3.5 mph - N/A   Clear
5:52 AM 30.9 °F - 30.0 °F 96% 30.10 in 9.0 mi Calm Calm - N/A   Clear
6:52 AM 30.0 °F 26.5 °F 28.9 °F 96% 30.10 in 5.0 mi SSW 3.5 mph - N/A   Clear
7:52 AM 37.9 °F - 36.0 °F 93% 30.10 in 10.0 mi Calm Calm - N/A   Clear
8:52 AM 44.1 °F - 37.0 °F 76% 30.10 in 10.0 mi Calm Calm - N/A   Clear
9:15 AM 46.9 °F - 36.0 °F 66% 30.10 in 1.8 mi Calm Calm - N/A   Haze
9:27 AM 48.0 °F - 35.1 °F 61% 30.10 in 3.0 mi Calm Calm - N/A   Haze
9:52 AM 48.0 °F - 34.0 °F 58% 30.10 in 10.0 mi Variable 4.6 mph - N/A   Clear
10:52 AM 51.1 °F - 32.0 °F 48% 30.07 in 10.0 mi South 4.6 mph - N/A   Clear
11:52 AM 54.0 °F - 30.9 °F 41% 30.04 in 10.0 mi Variable 6.9 mph - N/A   Clear
12:52 PM 55.9 °F - 28.9 °F 36% 30.00 in 10.0 mi SSW 5.8 mph - N/A   Clear
1:52 PM 57.0 °F - 28.9 °F 34% 29.99 in 10.0 mi WSW 5.8 mph - N/A   Clear
2:52 PM 57.9 °F - 25.0 °F 28% 29.97 in 10.0 mi Calm Calm - N/A   Clear
3:52 PM 57.0 °F - 28.9 °F 34% 29.96 in 10.0 mi WSW 4.6 mph - N/A   Clear
4:52 PM 55.0 °F - 28.9 °F 37% 29.96 in 10.0 mi WSW 4.6 mph - N/A   Clear
5:52 PM 52.0 °F - 30.0 °F 43% 29.98 in 10.0 mi West 3.5 mph - N/A   Clear
6:52 PM 46.0 °F - 30.9 °F 56% 29.99 in 10.0 mi Calm Calm - N/A   Clear
7:52 PM 42.1 °F - 30.9 °F 65% 29.99 in 10.0 mi Calm Calm - N/A   Clear
8:52 PM 39.9 °F - 32.0 °F 73% 29.99 in 10.0 mi Calm Calm - N/A   Clear
9:52 PM 36.0 °F 32.1 °F 32.0 °F 86% 29.99 in 10.0 mi SE 4.6 mph - N/A   Clear
10:52 PM 37.0 °F - 33.1 °F 86% 29.98 in 10.0 mi Calm Calm - N/A   Clear
11:52 PM 35.1 °F - 33.1 °F 92% 29.98 in 10.0 mi Calm Calm - N/A   Clear